星链-5321 (STARLINK-5321 )

导读 | 豆包AI

STARLINK-5321是美国太空探索技术公司星链卫星网络中的一颗卫星,于2023年1月19日发射升空,属于星链项目第二批组网卫星。星链计划旨在构建全球卫星互联网星座,该卫星承担着为全球偏远地区、海洋等区域提供宽带互联网接入服务的任务,进一步推进了星链星座的组网进程。

Basic Information
目录编号:
55302
目录名称:
STARLINK-5321
国际标识:
2023-010AK
轨道中心:
EARTH
卫星名称:
星链-5321
卫星全名:
星链-5321 (STARLINK-5321 )
卫星状态:
在轨 (已飞行1197 天)
发射日期:
2023-01-19 UTC
国别 :
美国 (US)
星等 :
--
Orbit Information
数据来源 国际轨道数据 AOE轨道数据
星历时间 2026-04-30T02:37:22+0800
21小时前
查看轨道信息
2026-04-24T07:00:00+0800
6天前
查看轨道信息
半长轴 6950.203km 6950.162km
偏心率 0.000303 0.0003369
轨道倾角 70.000° 69.998°
近地点辐角 266.235° 267.277°
升交点赤经 255.550° 270.222°
平近点角 93.846° 41.662°
近地点 569.96km 569.683km
远地点 574.172km 574.367km
周期 96.107分钟 96.106分钟
每日圈数 14.983269 14.983401
Detailed Information
固有亮度:
5
最大亮度:
2.5
卫星平台:
Starlink v1.5
覆盖范围:
全球
运营商:
太空探索技术公司
运营商所在国:
美国
制造商(研发单位):
太空探索技术公司
制造商所在国:
美国
使用方式:
暂无
Satellite Introduction
星链(Starlink)计划是由太空探索技术公司(SpaceX)提出的一个巨型低轨卫星互联网星座项目,计划在2019年至2024年间在太空搭建由约1.2万颗卫星组成的“星链”网络,其中1584颗将部署在地球上空550千米处的近地轨道,并从2020年开始工作。该卫星仍在工作。
2D Orbit Map
3D Orbit Map
Orbit Altitude Analysis Chart
Orbit Inclination Analysis Chart
Orbit Comprehensive Analysis Chart
View Comprehensive Chart